Accueil
METAR-TAF:

METAR-TAF

Aéroports :

Chatham Municipal Airport

Chatham, Massachusetts, États-Unis

latitude: 41-41-15N, longitude: 069-59-36W, altitude: 20 m

Observation

Le bulletin a été fait il y a 58 minutes, à 01:52 UTC
Vent 3 kt de nord/nord-ouest
Température -2°C
Humidité 69%
Pression 1021 hPa
Visibilité: 16.1 km
Ciel clair

METAR: KCQX 110152Z AUTO 33003KT 10SM CLR M02/M07 A3015 RMK AO2 SLP212 T10221067

Heure: 21:50 (02:50 UTC)


TAF: absent

Observations et prévisions météorologiques de plus de 4000 aéroports (messages METAR et TAF).

Les stations disponibles sont représentées par des disques jaunes et rouges sur la carte.

Passer la souris dessus pour voir le nom de la station.

Cliquer dessus pour voir les observations et prévisions météorologiques.

Pour changer de carte: cliquez sur les boutons verts avec une croix noire pour zoomer, sur le bouton vert avec un tiret pour effectuer un zoom arrière, ou sur les flèches vertes pour les cartes adjacentes.


METAR-TAF: